Location: Brno
(49.2000°N, 16.6330°E)
Time: 06:53:16
(UTC+02:00)

Courier 1B - Visible Passes

Search period start: 31 July 2021 00:00
Search period end: 10 August 2021 00:00
Orbit: 962 x 1209 km, 28.3° (Epoch: 30 July)

Date Brightness Start Highest point End Pass type
(mag) Time Alt. Az. Time Alt. Az. Time Alt. Az.
31 Jul 9.4 21:41:49 10° SSW 21:45:32 14° S 21:48:38 11° SSE visible
01 Aug 9.5 22:41:32 10° SW 22:44:42 13° S 22:44:56 13° S visible
02 Aug 9.5 21:47:29 10° SW 21:51:11 14° S 21:54:19 11° SSE visible
03 Aug 9.7 22:48:50 10° SSW 22:50:19 11° SSW 22:50:32 11° SSW visible
04 Aug 9.6 21:53:51 10° SW 21:56:49 12° SSW 21:59:46 10° S visible
05 Aug 9.6 20:59:38 10° SW 21:03:18 14° S 21:06:55 10° SSE visible
07 Aug 9.8 21:06:32 10° SSW 21:08:55 12° SSW 21:11:18 10° S visible
